Resoconti di bolidi

Nov 06, 2019 - Dec 07, 2019
Trovati resoconti: 2751  negli ultimi 30 giorni  Pagina 4 / 56
IDDate e tempo T.U. (Tempo Universale)Data e tempo localeRegioneCittàStatoDur.MagnitudineSuono differitoSuono contemporaneoFrag.OsservatoreLivello di esperienza
Evento 6169-2019
6169r2019-12-05 11:30 UT2019-12-05 05:30 CSTUS CypressTX≈3,5s -20---StephenL 3
6169s2019-12-05 11:35 UT2019-12-05 05:35 CSTUS WallerTX≈20s -20--SteveJ 2
6169t2019-12-05 11:35 UT2019-12-05 05:35 CSTUS HoustonTX≈20s -10??-RachelP 1
6169u2019-12-05 11:30 UT2019-12-05 05:30 CSTUS WallerTX≈3,5s -13---JustinG 3
6169v2019-12-05 11:30 UT2019-12-05 05:30 CSTUS HoustonTX≈3,5s -21--TinaL 1
6169w2019-12-05 11:36 UT2019-12-05 05:36 CSTUS HoustonTX≈1,5s -19--MikeE 2
6169x2019-12-05 11:30 UT2019-12-05 05:30 CSTUS HoustonTX≈3,5s -11---DeaunF 2
6169y2019-12-05 11:36 UT2019-12-05 05:36 CSTUS HoustonTX≈1,5s -22---RobK 1
6169z2019-12-05 11:30 UT2019-12-05 05:30 CSTUS HoustonTX≈3,5s -18---ChrisM 1
Evento 6168-2019
6168a2019-12-04 06:00 UT2019-12-04 06:00 GMTGB England≈3,5s -13??PaulL 2
6168b2019-12-04 05:55 UT2019-12-04 05:55 GMTGB England<1s -13---JulesG 1
6168c2019-12-04 05:50 UT2019-12-04 05:50 GMTGB Wales≈1,5s -8--Clive M 1
6168d2019-12-04 05:45 UT2019-12-04 05:45 GMTGB NetleyEngland≈3,5s -18--PatrickM 3
6168e2019-12-04 05:45 UT2019-12-04 05:45 GMTGB ExeterEngland≈1,5s -13??-MelanieW 2
6168f2019-12-04 05:55 UT2019-12-04 06:55 CETFR Saint-SuliacBretagne≈1,5s -11???ChristopheG 1
6168g2019-12-04 06:50 UT2019-12-04 06:50 GMTGB UckfieldEngland≈1,5s -12---LawrieT 1
Evento 6167-2019
6167a2019-12-04 20:21 UT2019-12-04 21:21 CETFR WambrechiesHauts-de-France≈3,5s -4---MikaëlD 5
6167c2019-12-04 20:13 UT2019-12-04 20:13 GMTGB BlabyEngland≈7,5s -18---MickN 1
6167d2019-12-04 20:16 UT2019-12-04 21:16 CETNL DelftZuid-Holland≈3,5s -15---RobB 1
6167e2019-12-04 20:18 UT2019-12-04 21:18 CETNL UtrechtUtrecht≈3,5s -12---TimG 1
6167f2019-12-04 20:18 UT2019-12-04 21:18 CETFR ReimsGrand Est≈3,5s -16---CyrilC 1
6167g2019-12-04 18:44 UT2019-12-04 19:44 CETFR AbrestAuvergne-Rhône-Alpes≈3,5s -5---julienL 1
6167h2019-12-04 18:44 UT2019-12-04 19:44 CETFR Is-sur-TilleBourgogne-Franche-Comté≈1,5s 0??-LaurentC 1
6167i2019-12-04 21:20 UT2019-12-04 22:20 CETFR SalvizinetAuvergne-Rhône-Alpes≈3,5s -18---HubertD 4
6167j2019-12-04 21:36 UT2019-12-04 22:36 CETDE Freiburg im BreisgauBaden-Württemberg≈3,5s -20--?MartinP 1
6167k2019-12-04 21:36 UT2019-12-04 22:36 CETNL KamerikUtrecht≈1,5s -7---JaccoS 3
6167l2019-12-04 21:36 UT2019-12-04 22:36 CETDE MaxdorfRheinland-Pfalz≈1,5s -6--?WolfgangF 2
6167m2019-12-04 21:36 UT2019-12-04 22:36 CETDE LinnichNordrhein-Westfalen≈1,5s -11--?PN 2
6167n2019-12-04 21:36 UT2019-12-04 22:36 CETLU BettembourgDistrict de Luxembourg≈3,5s -10??-FernandE 4
6167o2019-12-04 21:35 UT2019-12-04 22:35 CETNL HansweertZeeland≈1,5s -9---HjalmarF 3
6167p2019-12-04 21:35 UT2019-12-04 21:35 GMTGB SaltdeanEngland≈1,5s -6---PeterC 3
6167q2019-12-04 21:31 UT2019-12-04 22:31 CETDE HöpfingenBaden-Württemberg≈3,5s -12---BjörnS 2
6167r2019-12-04 21:30 UT2019-12-04 22:30 CETFR NiedersteinbachGrand Est≈3,5s -17--PascalB 3
6167s2019-12-04 22:00 UT2019-12-04 23:00 CETFR MirebelBourgogne-Franche-Comté≈3,5s -12??-Christophe R 1
6167t2019-12-04 21:30 UT2019-12-04 22:30 CETFR Pont-d'AinAuvergne-Rhône-Alpes≈3,5s -23??-christopheC 1
Evento 6166-2019
6166a2019-12-05 04:20 UT2019-12-04 22:20 CSTUS NormalIL≈3,5s -13---TammyK 1
6166b2019-12-05 04:18 UT2019-12-04 22:18 CSTUS BentonIL≈1,5s -4--CarlD 3
6166c2019-12-05 06:04 UT2019-12-05 00:04 CSTUS GrayslakeIL≈1,5s -10---ToddW 4
Evento 6165-2019
6165a2019-12-04 23:48 UT2019-12-04 17:48 CSTUS Kansas CityKS≈7,5s -13---NickT 2
6165aa2019-12-04 23:48 UT2019-12-04 17:48 CSTUS FayetteMO≈3,5s -6??-KendalC 5
6165ab2019-12-04 23:48 UT2019-12-04 17:48 CSTUS AlbanyMO≈1,5s -8??-DanB 4
6165ac2019-12-04 23:50 UT2019-12-04 17:50 CSTUS Lee's SummitMO≈1,5s -6---AngelaW 2
6165ad2019-12-04 23:48 UT2019-12-04 17:48 CSTUS ArnoldMO≈1,5s -7--CHRISTOPHERK 3
6165ae2019-12-04 23:47 UT2019-12-04 17:47 CSTUS IL≈1,5s 0--ThomasH 2
6165af2019-12-04 23:45 UT2019-12-04 17:45 CSTUS ShueyvilleIA≈1,5s -7??-CarolineR 5
6165ag2019-12-04 23:37 UT2019-12-04 17:37 CSTUS DanvilleIllinois≈20s 0??-DawnM 1
6165ah2019-12-04 23:40 UT2019-12-04 17:40 CSTUS St. LouisMO<1s -24---NitG 1
6165ai2019-12-04 23:40 UT2019-12-04 17:40 CSTUS De WittIL≈1,5s -6--ChristyD 2
6165aj2019-12-04 23:40 UT2019-12-04 17:40 CSTUS Clear LakeIL≈3,5s -6--?JenniferM 2
6165ak2019-12-04 23:45 UT2019-12-04 17:45 CSTUS GarrettIL≈3,5s -4---RichardC 1